Content
SEND FEEDBACK

Daily
Averages
Monthly
Summary
United States of America

BOX ELDER, SOUTH DAKOTA


Home > North America > United States > South Dakota
Elevation: 3170 feet     Latitude: 44 09N     Longitude: 103 06W

WEATHER
 
SELECT A DAY
Number of Records: 207,733;   Date Range: 1/1/95 - 10/20/14
 
SHARE

PRINT THIS DATA

[ ← Previous Day ]
WEATHER ALMANAC - MARCH 25, 2013
[ Next Day → ]
[ °C ]   °F
Weather ElementAverageHighLow
Temperature16.7 °F27.5 °F (5:55 pm)7.2 °F (5:55 am)
Dewpoint8.7 °F13.5 °F (8:55 pm)0.3 °F (7:55 am)
Humidity71.7 %86 % (5:55 am)49 % (4:55 pm)
Barometer30.42 in30.48 in (7:55 am)30.30 in (11:55 pm)
Wind Speed7.8 mph17.3 mph (12:17 am)
Weather ElementAverage
Visibility9.9 mi
Wind DirectionSSW (201.8 °)

Weather ElementTotal
Precipitation---
Heating Degree Days47.7 (Base 65)
Averaged from 33 records on March 25, 2013
WEATHER CONDITIONS BREAKOUT
WIND DIRECTION BREAKOUT
WEATHER BY HOUR - MARCH 25, 2013
[ °C ]   °F
Local TimeTemperatureDewpointHumidityBarometerVisibilityWind DirectionWind SpeedGust SpeedPrecipitationEventsConditions
12:04 AM14.0 °F8.6 °F79 %30.45 in10.0 miNNW (340°)15.0 mphOvercast
12:06 AM14.0 °F8.6 °F79 %30.44 in10.0 miNNW (340°)15.0 mphOvercast
12:09 AM14.0 °F8.6 °F79 %30.45 in10.0 miNNW (340°)16.1 mphOvercast
12:17 AM14.0 °F8.6 °F79 %30.44 in10.0 miNorth (350°)17.3 mphOvercast
12:55 AM14.2 °F9.1 °F80 %30.45 in10.0 miNNW (340°)13.8 mphOvercast
1:36 AM14.0 °F8.6 °F79 %30.44 in10.0 miNNW (340°)12.7 mphOvercast
1:55 AM14.4 °F8.8 °F79 %30.44 in10.0 miNNW (340°)10.4 mph0.00 inOvercast
2:01 AM14.0 °F8.6 °F79 %30.44 in6.0 miNNW (340°)12.7 mphHaze
2:51 AM14.0 °F8.6 °F79 %30.43 in10.0 miNW (320°)12.7 mphOvercast
2:55 AM13.5 °F9.1 °F83 %30.43 in10.0 miNNW (330°)15.0 mphOvercast
3:55 AM12.9 °F8.2 °F82 %30.43 in10.0 miNW (320°)11.5 mphOvercast
4:02 AM12.2 °F6.8 °F79 %30.43 in10.0 miNW (320°)11.5 mphOvercast
4:08 AM12.2 °F6.8 °F79 %30.43 in10.0 miNW (310°)11.5 mphMostly Cloudy
4:55 AM9.5 °F5.2 °F83 %30.44 in10.0 miNW (310°)8.1 mphClear
5:55 AM7.2 °F3.7 °F86 %30.46 in10.0 miWest (260°)5.8 mphClear
6:55 AM7.7 °F2.5 °F79 %30.47 in10.0 miNW (310°)3.5 mphClear
7:55 AM7.3 °F0.3 °F73 %30.48 in10.0 miCalmClear
8:55 AM9.5 °F2.8 °F74 %30.47 in10.0 miCalmClear
9:55 AM12.9 °F4.5 °F69 %30.47 in10.0 miCalmClear
10:55 AM17.6 °F7.7 °F65 %30.46 in10.0 miCalmClear
11:55 AM21.6 °F9.1 °F59 %30.45 in10.0 miNorth (10°)8.1 mphClear
12:55 PM23.4 °F10.0 °F57 %30.43 in10.0 miNNE (20°)4.6 mphClear
1:55 PM22.8 °F12.4 °F64 %30.42 in10.0 miCalmClear
2:55 PM25.2 °F13.3 °F61 %30.40 in10.0 miWest (260°)4.6 mphClear
3:55 PM26.4 °F11.1 °F53 %30.38 in10.0 miCalmClear
4:55 PM27.3 °F10.4 °F49 %30.38 in10.0 miCalmClear
5:55 PM27.5 °F10.9 °F50 %30.38 in10.0 miSouth (170°)4.6 mphClear
6:55 PM26.4 °F11.7 °F54 %30.37 in10.0 miSouth (180°)3.5 mphClear
7:55 PM23.4 °F12.4 °F63 %30.38 in10.0 miSouth (170°)4.6 mphClear
8:55 PM21.0 °F13.5 °F73 %30.38 in10.0 miSSE (160°)5.8 mphClear
9:55 PM19.0 °F13.3 °F78 %30.36 in10.0 miSouth (170°)8.1 mphClear
10:55 PM18.5 °F11.3 °F73 %30.34 in10.0 miSE (140°)8.1 mphClear
11:55 PM19.8 °F10.6 °F68 %30.30 in10.0 miSouth (170°)11.5 mphClear
Hourly data recorded from KRCA, located miles away from Box Elder, South Dakota







STORIES FROM OUR PARTNERS